Precipitable_Water
1.15 1.11 1.01 0.96 0.97 0.99 0.96 0.97 1.00 0.98 1.01 1.05 1.06 1.03 0.98 0.94 0.95 0.94 0.94 0.97 0.98 0.99 1.02 1.14 1.20 1.21 1.15 1.11 1.08 1.06 1.05 1.05 1.02 1.00 0.95 0.91 0.87 0.87 0.88 0.88 0.88 0.87 0.88
1.23 1.15 1.10 0.99 0.92 0.93 0.94 0.95 0.96 1.06 1.09 1.11 1.10 1.09 1.03 1.01 1.04 1.06 1.07 1.05 1.04 1.04 1.04 1.06 1.17 1.24 1.20 1.17 1.14 1.14 1.13 1.13 1.09 1.06 1.03 0.98 0.91 0.87 0.86 0.86 0.87 0.89 0.89
1.26 1.17 1.10 1.08 1.06 1.04 1.00 1.01 1.03 1.07 1.07 1.11 1.07 1.08 1.09 1.08 1.09 1.12 1.15 1.16 1.14 1.11 1.10 1.11 1.12 1.15 1.16 1.19 1.18 1.17 1.16 1.18 1.17 1.14 1.09 1.08 1.02 0.91 0.87 0.87 0.87 0.88 0.87
1.23 1.18 1.14 1.10 1.17 1.19 1.16 1.12 1.08 1.05 1.05 1.06 1.04 1.06 1.10 1.15 1.19 1.21 1.24 1.26 1.23 1.18 1.13 1.10 1.06 1.08 1.13 1.16 1.20 1.21 1.21 1.21 1.21 1.20 1.18 1.12 1.10 1.08 0.96 0.91 0.89 0.88 0.89
1.27 1.23 1.23 1.22 1.26 1.24 1.21 1.17 1.15 1.15 1.10 1.11 1.12 1.20 1.21 1.28 1.31 1.32 1.28 1.27 1.26 1.24 1.17 1.07 1.00 1.01 1.04 1.10 1.16 1.19 1.23 1.26 1.26 1.26 1.21 1.20 1.18 1.12 1.10 1.03 0.98 0.94 0.93
1.33 1.31 1.30 1.30 1.31 1.28 1.24 1.22 1.18 1.20 1.18 1.16 1.16 1.16 1.20 1.26 1.28 1.22 1.19 1.17 1.12 1.09 1.08 1.07 1.05 1.04 1.03 1.06 1.11 1.15 1.16 1.18 1.23 1.28 1.27 1.25 1.22 1.18 1.16 1.13 1.10 1.04 0.99
1.38 1.37 1.35 1.34 1.32 1.25 1.23 1.24 1.21 1.14 1.13 1.15 1.11 1.10 1.19 1.22 1.22 1.22 1.20 1.15 1.05 1.05 1.02 0.99 1.01 1.01 1.02 1.03 1.05 1.10 1.13 1.16 1.18 1.23 1.27 1.32 1.29 1.25 1.22 1.20 1.16 1.11 1.08
1.46 1.42 1.36 1.33 1.31 1.25 1.19 1.17 1.18 1.11 1.12 1.16 1.03 1.01 0.88 0.95 1.00 0.99 1.05 1.02 0.99 0.99 0.95 0.93 0.92 0.94 0.99 1.00 1.03 1.05 1.09 1.14 1.16 1.20 1.24 1.27 1.29 1.31 1.27 1.22 1.17 1.13 1.08
1.43 1.38 1.35 1.32 1.29 1.27 1.19 1.19 1.17 1.10 0.99 1.07 1.08 1.00 0.86 0.75 0.83 0.93 0.95 0.97 0.94 0.91 0.92 0.89 0.91 0.95 1.03 1.01 1.01 1.03 1.05 1.04 1.06 1.07 1.11 1.14 1.16 1.21 1.24 1.28 1.22 1.14 1.12
1.30 1.26 1.26 1.26 1.23 1.17 1.09 1.06 1.06 1.02 0.99 0.89 1.00 1.04 1.03 0.96 0.74 0.67 0.80 0.87 0.91 0.87 0.90 0.89 0.95 0.99 1.01 0.97 0.95 0.94 0.93 0.90 0.89 0.93 0.93 0.93 0.97 1.01 1.10 1.18 1.23 1.19 1.15
1.10 1.04 0.97 0.91 0.87 0.85 0.85 0.86 0.83 0.82 0.82 0.78 0.76 0.79 0.82 0.82 0.81 0.74 0.61 0.66 0.79 0.89 0.97 0.98 0.96 0.94 0.97 0.95 0.89 0.84 0.85 0.82 0.84 0.85 0.88 0.89 0.92 0.97 1.01 1.05 1.15 1.18 1.28
0.92 0.91 0.88 0.86 0.86 0.84 0.82 0.82 0.83 0.81 0.79 0.79 0.76 0.74 0.71 0.66 0.69 0.67 0.63 0.69 0.72 0.86 0.95 1.00 0.93 0.92 0.96 0.92 0.84 0.80 0.76 0.76 0.76 0.79 0.82 0.84 0.88 0.90 0.91 0.93 1.00 1.07 1.12
0.87 0.87 0.88 0.85 0.85 0.86 0.85 0.84 0.80 0.80 0.80 0.77 0.74 0.77 0.80 0.78 0.79 0.80 0.80 0.77 0.71 0.85 0.98 0.94 0.92 0.95 0.90 0.84 0.77 0.73 0.74 0.74 0.75 0.78 0.78 0.81 0.81 0.81 0.82 0.84 0.89 0.91 0.96
0.87 0.90 0.88 0.84 0.82 0.81 0.80 0.80 0.78 0.78 0.81 0.79 0.80 0.84 0.83 0.89 0.90 0.90 0.80 0.75 0.67 0.81 0.83 0.87 0.93 0.89 0.84 0.79 0.73 0.74 0.75 0.75 0.73 0.73 0.73 0.74 0.75 0.76 0.72 0.73 0.76 0.82 0.86
0.88 0.86 0.83 0.79 0.79 0.79 0.78 0.78 0.77 0.78 0.81 0.80 0.77 0.78 0.76 0.80 0.85 0.86 0.94 0.87 0.79 0.70 0.77 0.81 0.76 0.82 0.77 0.75 0.74 0.74 0.72 0.72 0.72 0.71 0.71 0.72 0.74 0.70 0.72 0.76 0.82 0.83 0.85
0.87 0.84 0.81 0.80 0.77 0.78 0.78 0.78 0.78 0.80 0.77 0.76 0.75 0.75 0.77 0.81 0.86 0.85 0.89 0.91 0.95 0.87 0.73 0.79 0.72 0.74 0.73 0.72 0.72 0.67 0.69 0.70 0.70 0.70 0.72 0.72 0.70 0.71 0.74 0.77 0.78 0.79 0.80
0.85 0.80 0.77 0.75 0.73 0.73 0.74 0.74 0.77 0.77 0.74 0.72 0.73 0.73 0.72 0.78 0.78 0.81 0.84 0.83 0.79 0.76 0.63 0.66 0.70 0.68 0.65 0.63 0.64 0.66 0.67 0.66 0.68 0.64 0.60 0.62 0.64 0.66 0.67 0.68 0.68 0.70 0.73
0.80 0.76 0.74 0.72 0.71 0.71 0.72 0.71 0.71 0.73 0.73 0.70 0.71 0.71 0.70 0.74 0.73 0.72 0.70 0.67 0.66 0.65 0.60 0.54 0.60 0.58 0.59 0.62 0.62 0.62 0.53 0.52 0.51 0.50 0.50 0.55 0.59 0.60 0.61 0.62 0.63 0.64 0.65
0.72 0.70 0.70 0.68 0.68 0.69 0.70 0.71 0.71 0.71 0.72 0.72 0.72 0.71 0.70 0.71 0.66 0.63 0.62 0.60 0.61 0.60 0.60 0.58 0.55 0.60 0.59 0.59 0.56 0.51 0.45 0.43 0.45 0.45 0.45 0.46 0.47 0.49 0.53 0.57 0.58 0.57 0.56
0.70 0.69 0.70 0.69 0.68 0.69 0.71 0.71 0.70 0.70 0.71 0.72 0.72 0.71 0.68 0.65 0.62 0.60 0.61 0.61 0.60 0.57 0.54 0.48 0.44 0.45 0.43 0.43 0.40 0.36 0.34 0.39 0.37 0.39 0.39 0.40 0.40 0.42 0.44 0.45 0.47 0.47 0.49
0.68 0.69 0.70 0.71 0.71 0.71 0.72 0.71 0.71 0.71 0.70 0.69 0.69 0.69 0.66 0.63 0.65 0.67 0.62 0.55 0.48 0.42 0.40 0.37 0.33 0.32 0.30 0.29 0.28 0.31 0.29 0.30 0.30 0.29 0.25 0.25 0.26 0.27 0.30 0.33 0.35 0.37 0.38
0.65 0.66 0.67 0.67 0.68 0.70 0.73 0.74 0.73 0.71 0.68 0.66 0.63 0.62 0.63 0.65 0.60 0.45 0.39 0.37 0.36 0.33 0.30 0.30 0.29 0.27 0.29 0.29 0.27 0.25 0.23 0.20 0.20 0.26 0.22 0.20 0.22 0.20 0.21 0.20 0.21 0.21 0.22
0.64 0.64 0.65 0.65 0.66 0.69 0.73 0.73 0.73 0.71 0.69 0.65 0.60 0.59 0.54 0.43 0.32 0.28 0.27 0.28 0.29 0.27 0.31 0.29 0.26 0.27 0.27 0.28 0.27 0.25 0.24 0.23 0.21 0.24 0.22 0.17 0.22 0.20 0.23 0.24 0.25 0.26 0.27
0.65 0.63 0.63 0.64 0.66 0.69 0.72 0.71 0.71 0.69 0.65 0.62 0.55 0.42 0.34 0.30 0.28 0.27 0.29 0.29 0.29 0.31 0.31 0.32 0.32 0.31 0.31 0.31 0.29 0.28 0.26 0.25 0.25 0.25 0.25 0.17 0.22 0.22 0.25 0.26 0.29 0.28 0.29
0.64 0.64 0.64 0.65 0.67 0.69 0.70 0.68 0.64 0.59 0.49 0.39 0.35 0.35 0.33 0.33 0.34 0.32 0.30 0.28 0.28 0.31 0.34 0.32 0.31 0.30 0.29 0.29 0.29 0.27 0.24 0.23 0.21 0.22 0.26 0.24 0.25 0.25 0.26 0.28 0.30 0.31 0.33
0.65 0.65 0.63 0.65 0.68 0.67 0.67 0.59 0.50 0.41 0.34 0.33 0.33 0.32 0.33 0.35 0.36 0.35 0.32 0.30 0.28 0.30 0.31 0.32 0.30 0.29 0.28 0.26 0.26 0.25 0.25 0.22 0.23 0.23 0.29 0.26 0.27 0.28 0.24 0.32 0.33 0.35 0.35
Wind_Speed
12 12 11 11 11 12 12 13 13 13 14 15 15 16 16 17 17 18 19 20 20 21 21 22 22 22 22 22 22 21 21 20 20 19 19 18 18 17 16 16 16 15 14
14 13 13 13 13 13 14 14 14 15 15 16 16 17 17 18 19 20 20 21 22 23 23 24 24 24 24 24 24 23 22 21 20 20 19 19 18 18 17 17 16 15 14
16 15 15 15 14 15 15 15 16 17 17 17 18 19 19 20 21 22 22 23 24 25 25 26 25 26 26 26 25 24 23 22 22 21 20 20 19 18 17 17 16 16 15
18 17 17 16 16 16 17 17 17 18 18 19 20 20 21 22 23 24 25 26 27 27 27 27 27 28 28 27 27 26 25 24 23 22 21 20 19 18 18 18 17 17 17
19 19 18 18 18 18 19 19 19 20 21 21 22 23 24 24 25 26 27 27 28 28 28 28 29 28 29 29 28 27 26 25 24 23 22 21 20 19 19 19 19 18 18
21 21 20 20 20 20 21 21 22 22 23 24 25 26 27 27 28 28 28 28 28 29 28 27 28 28 28 28 27 27 27 26 25 24 23 23 22 21 21 20 20 19 19
23 23 23 23 23 23 23 23 24 25 26 27 28 28 28 28 29 30 29 28 28 26 26 28 28 28 28 27 27 26 26 26 25 25 24 25 24 23 23 22 22 21 20
26 25 25 25 25 25 26 27 27 28 28 28 28 29 29 28 30 29 28 26 25 26 27 27 28 28 27 27 26 25 25 25 25 24 25 25 25 26 26 25 24 23 22
27 27 28 28 28 29 29 30 30 31 31 31 31 30 29 28 27 27 26 25 26 27 27 27 27 28 27 26 25 25 24 24 24 24 25 26 26 26 26 27 27 24 23
28 29 29 30 31 31 32 33 33 34 34 34 32 32 32 32 30 29 27 27 27 27 29 28 28 26 25 25 25 26 26 25 25 25 26 26 26 26 27 27 26 27 25
30 31 32 32 33 34 34 34 34 34 33 33 33 32 31 31 31 30 30 29 29 28 28 28 26 25 25 25 26 26 25 24 24 25 25 25 25 25 24 24 24 25 27
32 32 33 34 34 34 34 34 33 33 33 33 32 32 32 30 28 28 29 29 29 28 28 26 26 25 25 26 26 25 23 23 25 25 25 24 24 24 23 23 22 20 22
33 33 33 34 34 34 35 34 34 34 33 33 33 32 32 32 31 30 29 28 28 28 26 26 26 25 26 26 25 23 23 24 24 24 25 24 23 22 22 21 21 22 22
33 33 34 34 34 34 34 34 34 33 33 33 32 31 31 30 30 30 29 28 27 27 26 25 25 25 26 25 23 23 24 24 24 24 23 23 22 21 19 19 19 19 19
34 34 34 34 34 34 34 34 33 32 31 31 31 30 29 29 28 28 28 28 27 25 25 25 25 25 24 23 24 24 24 24 24 22 21 20 18 17 17 16 15 16 16
34 35 35 34 34 34 34 33 33 32 31 30 29 28 26 26 26 26 26 26 25 24 24 24 25 24 24 23 24 24 24 23 21 20 18 16 13 12 12 12 12 13 13
35 35 34 34 33 33 32 31 31 31 30 29 28 27 27 26 26 26 26 25 25 26 25 24 24 23 23 24 23 22 21 18 16 15 14 13 12 13 13 13 13 13 13
35 35 34 34 34 33 32 31 31 30 30 29 28 27 27 27 27 26 25 24 24 24 23 22 22 21 22 21 20 19 16 15 15 15 14 14 15 15 15 15 15 15 15
34 33 33 33 33 33 32 32 31 30 30 29 29 28 28 27 26 25 24 23 23 22 21 20 18 18 18 17 16 15 15 15 15 16 16 16 16 17 17 17 18 18 18
33 33 32 32 32 32 32 32 31 30 29 29 28 28 27 26 25 24 23 22 20 19 17 16 16 16 15 15 15 15 16 17 17 17 17 17 17 17 18 18 19 19 19
31 31 31 31 31 31 31 31 31 30 29 28 27 26 25 24 23 21 19 18 17 17 15 16 16 15 15 15 16 16 17 18 18 18 18 18 19 19 19 19 19 20 20
29 30 32 32 32 32 31 29 28 28 27 26 24 24 23 20 18 16 16 16 16 15 15 16 16 16 15 16 16 17 18 18 18 19 19 20 19 20 20 20 21 21 22
29 30 30 29 29 28 28 27 25 23 22 22 21 19 18 17 17 16 16 15 14 14 15 15 15 15 16 17 17 18 18 18 19 20 19 19 19 19 19 20 20 21 21
28 28 28 27 26 26 25 25 24 23 21 19 18 17 17 17 16 16 15 14 14 14 15 15 15 16 16 17 17 18 18 19 19 19 19 19 19 20 21 21 20 21 21
26 25 24 24 23 21 20 20 19 19 19 19 18 18 17 16 16 15 15 15 15 15 16 16 17 17 18 18 18 19 19 18 19 18 19 19 20 21 21 21 21 21 22
23 22 22 21 20 19 18 18 17 18 18 17 17 16 16 15 15 15 15 15 15 16 16 17 17 18 18 18 19 19 19 19 19 20 20 20 20 21 21 20 21 23 24
Wind_Direction
257 261 267 271 275 276 281 282 286 288 291 295 296 299 302 305 307 309 310 312 313 314 314 312 310 311 313 314 315 313 313 312 311 310 309 309 308 307 306 305 306 305 303
256 261 267 271 275 278 280 282 284 287 291 293 296 298 299 302 304 306 307 309 309 311 311 310 308 308 308 309 310 309 308 308 308 307 306 306 304 303 302 302 301 300 298
256 261 267 271 275 278 280 282 284 287 289 291 294 296 298 299 302 303 303 305 306 307 308 308 306 306 305 305 305 304 303 302 303 304 304 303 301 300 299 299 297 295 293
255 261 268 271 275 278 280 283 284 287 288 290 293 295 297 298 299 301 302 303 303 304 305 304 304 304 303 302 301 300 298 296 297 298 300 299 297 298 296 295 293 291 289
256 261 267 271 274 277 280 283 285 286 288 290 292 294 296 297 297 300 301 302 302 302 302 303 304 302 301 301 298 296 296 294 292 292 294 293 293 294 294 292 290 289 287
257 262 267 271 274 277 280 282 284 286 287 289 291 293 294 295 297 298 299 300 302 302 302 303 304 304 303 302 299 296 293 292 291 289 287 287 289 289 289 289 288 287 286
260 263 267 271 274 277 279 281 283 285 287 289 291 292 293 294 296 296 297 298 302 302 302 303 304 304 304 302 299 297 296 292 289 288 286 284 284 285 284 285 284 284 284
260 264 268 272 275 277 279 281 283 285 287 288 290 293 293 295 297 296 295 295 298 300 303 303 303 304 303 302 301 298 296 294 291 287 285 285 284 281 281 282 280 282 279
262 267 269 272 275 277 279 281 283 284 286 287 287 287 292 292 297 298 297 295 296 299 301 301 302 303 301 302 301 299 298 296 293 290 288 286 284 282 281 279 276 276 276
265 269 271 273 275 277 279 280 282 283 284 285 286 284 285 287 292 294 293 294 296 297 299 299 300 301 300 301 301 300 297 295 293 291 290 288 285 283 282 280 275 272 273
266 269 271 274 276 279 280 281 282 282 283 284 284 285 286 286 286 287 291 293 294 295 297 297 297 299 298 301 301 299 298 296 295 294 293 289 287 286 282 282 277 274 267
267 270 273 275 277 278 279 280 281 282 282 283 283 283 283 284 286 285 289 291 292 294 296 293 295 297 297 301 301 298 297 296 297 296 294 291 287 286 283 280 278 280 281
268 270 274 276 277 278 279 280 280 281 281 282 282 282 282 282 282 283 286 289 291 291 291 293 294 296 297 300 299 297 298 298 298 298 296 292 289 286 283 279 278 281 281
268 271 275 277 277 278 278 279 279 280 280 281 281 282 281 281 281 281 284 287 291 288 290 289 292 294 297 297 297 297 298 299 299 299 299 296 290 285 281 281 283 283 283
268 273 274 276 277 277 278 278 278 279 280 280 281 280 280 280 280 282 283 284 286 287 285 290 290 293 294 295 297 297 298 299 300 299 299 300 295 284 281 282 282 285 287
269 273 275 276 277 277 277 277 277 277 278 279 279 278 279 280 280 283 283 284 284 284 285 289 290 291 292 294 297 298 299 299 298 298 299 298 294 291 285 286 288 291 291
270 273 274 275 276 276 277 277 276 276 275 276 276 276 277 278 280 282 283 283 283 284 284 286 287 288 290 293 295 297 299 300 299 300 299 296 293 290 288 287 289 290 291
270 271 272 274 274 275 275 275 275 275 273 274 274 274 275 277 279 280 281 282 282 284 284 284 286 288 291 293 295 296 297 298 296 296 295 293 291 288 285 286 287 287 288
269 270 272 273 274 274 274 274 274 273 273 273 273 274 274 275 277 279 279 280 281 281 282 284 285 290 291 294 294 294 294 296 294 294 293 292 291 288 285 284 284 285 285
269 270 271 273 274 273 273 272 271 270 270 271 272 272 273 274 275 276 277 277 276 278 280 280 285 288 290 293 294 294 294 293 292 294 292 290 290 287 286 286 285 284 283
270 269 271 273 274 274 273 272 270 269 269 269 269 270 271 271 272 273 271 271 274 276 276 280 283 285 288 291 293 294 294 294 292 293 291 288 289 288 287 286 285 285 285
270 271 272 273 273 273 272 270 269 268 267 266 266 266 266 267 266 265 267 271 273 271 277 280 283 285 288 290 293 295 295 295 293 294 293 291 287 288 287 286 286 286 286
272 272 272 273 273 272 267 266 265 263 263 261 260 258 257 258 259 263 265 268 270 276 277 281 284 286 290 292 294 294 295 295 293 293 294 291 290 290 289 289 288 290 288
274 272 271 270 271 270 265 261 260 258 258 254 251 254 255 257 259 259 264 267 272 276 280 284 286 289 291 293 294 294 294 294 294 293 293 292 292 291 291 290 288 290 290
275 273 270 267 267 266 261 255 254 252 250 250 251 251 253 254 256 261 265 269 273 277 282 285 288 290 291 293 293 294 295 296 295 294 294 293 292 294 292 290 289 290 291
273 269 268 266 264 262 254 252 251 248 246 247 246 247 251 253 257 262 267 271 275 279 283 288 290 292 293 293 294 293 293 293 293 295 294 294 294 296 294 291 291 293 293